EHI
3 3 3 3 3 3 3 3 3 3 3 3 2 1 1 2 2 1 0 0 0 0 0 0 0 1 2 2 1 0 0 0 0 0 0 0 0 0
3 3 4 3 3 3 3 3 2 2 2 2 2 1 2 2 1 0 0 0 0 0 0 0 0 0 1 1 0 0 0 0 0 0 0 0 0 0
4 4 5 4 4 3 2 1 1 1 1 1 2 2 2 2 1 0 0 0 0 0 0 0 0 0 0 0 0 0 0 0 0 0 0 0 0 0
5 6 6 6 5 3 1 0 0 0 0 1 2 2 2 2 1 0 0 0 0 0 0 0 0 0 0 0 0 0 0 0 0 0 0 0 0 0
9 9 7 6 5 3 1 0 0 0 0 0 1 2 1 1 1 0 0 0 0 0 0 0 0 0 0 0 0 0 0 0 0 0 0 0 0 0
11 10 8 6 4 3 2 2 2 1 0 0 1 1 1 1 1 0 0 0 0 0 0 0 0 0 0 0 0 0 0 0 0 0 0 0 0 0
8 8 7 5 4 3 2 3 3 3 1 0 0 1 0 0 0 0 0 0 0 0 0 0 0 0 0 0 0 0 0 0 0 0 0 0 0 0
5 5 5 4 3 3 2 2 3 3 2 1 1 2 1 0 0 0 0 0 0 0 0 0 0 0 0 0 0 0 0 0 0 0 0 0 0 0
4 4 4 4 4 4 3 2 2 3 2 2 3 3 2 1 0 0 0 0 0 0 0 0 0 0 0 0 0 0 0 0 0 0 0 0 0 0
4 4 5 5 5 5 5 3 2 2 2 2 3 3 3 1 0 0 0 0 0 0 0 0 0 0 0 0 0 0 0 0 0 0 0 0 0 0
4 4 4 5 5 5 5 3 1 1 1 1 2 3 3 2 0 0 0 0 0 0 0 0 0 0 0 0 0 0 0 0 0 0 0 0 0 0
4 4 4 4 4 4 4 3 1 1 1 2 2 3 3 2 0 0 0 0 0 0 0 0 0 0 0 0 0 0 0 0 0 0 0 0 0 0
4 4 4 3 2 2 2 2 2 1 1 2 2 3 3 2 1 0 0 0 0 0 0 0 0 0 0 0 0 0 0 0 0 0 0 0 0 0
5 5 4 2 1 1 1 1 1 1 0 1 1 2 3 3 2 1 0 0 0 0 0 0 0 0 0 0 0 0 0 0 0 0 0 0 0 0
3 3 2 0 0 0 0 0 0 0 0 0 0 1 2 3 3 1 0 0 0 0 0 0 0 0 0 0 0 0 0 0 0 0 0 0 0 0
1 1 0 0 0 0 0 0 0 0 0 0 0 0 1 3 3 2 1 0 0 0 0 0 0 0 0 0 0 0 0 0 0 0 0 0 0 0
0 0 0 0 0 0 0 0 0 0 0 0 0 0 1 2 3 2 1 0 0 0 0 0 0 0 0 0 0 0 0 0 0 0 0 0 0 0
0 0 0 0 0 0 0 0 0 0 0 0 0 0 0 1 2 1 0 0 0 0 0 0 1 2 1 1 0 0 0 0 0 0 0 0 0 0
0 0 0 0 0 0 0 0 0 0 0 0 0 0 0 0 0 0 0 0 0 0 0 1 2 3 3 2 1 0 0 0 0 0 0 0 0 0
0 0 0 0 0 0 0 0 0 0 0 0 0 0 0 0 0 0 0 0 0 0 1 2 3 3 3 3 2 1 0 0 0 0 0 0 0 0
0 0 0 0 0 0 0 0 0 0 1 1 1 1 1 1 1 1 1 1 0 0 1 3 3 3 3 3 2 1 0 0 0 0 0 0 0 0
0 0 0 0 0 0 0 0 0 0 1 2 2 2 2 2 2 2 2 2 1 1 2 3 3 2 2 2 2 1 0 0 0 0 0 0 0 0
0 0 0 0 0 0 0 0 0 0 1 3 3 3 3 3 3 3 3 3 2 2 3 3 2 1 1 1 1 0 0 0 0 0 0 0 0 0
Wind_Speed
1 1 1 1 1 1 1 2 3 1 2 2 1 1 1 1 2 2 2 4 5 5 6 6 6 6 6 6 7 7 7 6 6 6 5 5 5 5
1 1 0 0 0 0 1 1 1 3 2 2 2 1 1 1 1 1 1 3 4 5 5 6 6 6 6 6 7 7 7 7 7 7 6 6 6 6
1 1 1 1 0 0 1 1 1 2 1 2 1 1 0 0 1 1 1 1 2 5 6 6 5 5 5 6 6 7 7 8 8 8 8 7 7 6
2 1 1 1 0 0 1 1 1 1 2 1 1 1 1 1 1 1 0 1 1 4 5 5 6 5 5 6 7 7 8 8 8 8 8 8 7 7
3 2 2 1 1 1 1 1 1 1 1 1 1 1 1 0 0 0 1 1 2 2 4 5 5 6 6 7 7 7 8 8 8 8 8 8 8 7
2 2 2 3 3 2 1 1 1 1 1 1 1 1 1 1 1 1 1 1 2 1 2 3 4 5 7 7 7 8 8 8 8 8 8 8 8 8
1 2 2 2 2 2 2 2 2 1 1 1 1 1 1 1 1 1 1 1 2 1 1 2 2 2 3 5 6 8 8 8 8 8 8 8 8 8
2 1 1 1 1 1 2 3 3 3 3 2 2 2 3 3 2 2 1 1 2 1 1 2 1 2 2 3 6 8 8 9 8 8 8 7 7 7
3 2 1 1 1 1 1 1 2 3 4 4 3 4 3 4 3 2 2 2 3 2 1 2 2 3 3 3 6 7 8 8 8 8 7 7 7 7
3 3 3 2 2 1 1 1 2 2 3 3 4 4 4 4 4 4 3 2 2 2 2 2 2 2 2 2 4 6 7 7 7 7 7 7 6 6
2 3 3 3 3 2 1 1 2 3 2 2 3 3 3 3 3 2 1 1 1 2 1 2 2 1 1 2 2 4 5 5 5 5 6 6 6 5
2 2 3 3 3 3 2 2 2 3 2 2 2 3 2 2 2 3 4 3 2 2 2 2 2 1 1 2 1 1 2 3 4 4 5 5 5 4
2 2 2 3 3 3 3 3 4 3 1 1 1 2 2 1 1 2 3 4 3 3 3 2 1 1 1 1 1 1 1 1 1 2 4 5 5 5
3 2 2 3 3 2 2 2 2 1 0 0 1 1 2 2 2 2 2 3 3 4 3 3 2 2 2 1 1 1 1 1 1 1 2 2 3 5
3 3 2 3 2 1 1 0 1 1 1 1 1 2 2 2 2 1 1 1 1 1 1 2 2 2 2 2 2 1 1 1 1 1 1 2 2 2
1 1 2 2 1 0 1 0 1 1 2 2 2 2 1 1 1 0 0 0 1 2 2 1 2 3 2 1 2 2 1 1 1 1 1 1 1 2
2 1 1 0 0 1 1 1 1 1 1 1 1 1 1 1 1 1 0 0 0 1 2 2 1 0 1 2 2 2 1 1 2 2 1 1 2 2
4 2 2 2 2 2 2 2 1 2 2 1 1 1 2 2 2 1 0 1 1 1 1 1 0 1 2 2 2 3 2 2 1 2 2 1 2 2
3 2 3 3 3 3 2 2 2 2 2 2 2 2 2 2 1 1 1 1 1 2 2 1 1 2 1 2 3 2 3 2 1 1 2 2 3 3
3 3 3 3 3 3 2 2 2 2 1 2 2 2 2 1 1 1 1 1 1 1 1 1 2 3 4 3 2 2 2 3 2 2 2 1 1 2
3 3 3 3 3 3 3 3 3 2 2 2 2 2 2 1 1 1 1 2 1 1 2 3 3 2 1 1 1 1 2 2 2 3 2 1 0 1
3 3 3 3 3 3 3 2 2 2 2 2 2 2 2 2 2 2 2 2 2 2 2 2 1 0 1 2 2 2 1 1 2 1 1 3 3 3
3 3 3 3 3 2 2 2 3 3 2 2 2 2 2 2 2 2 2 2 2 2 1 1 1 0 1 2 2 1 1 1 1 1 2 3 2 3
Wind_Direction
185 152 160 194 147 156 151 157 162 195 270 266 269 274 240 224 221 198 204 208 198 193 197 201 207 212 213 209 208 207 208 209 212 213 217 219 219 222
168 123 131 235 169 148 141 135 152 168 214 249 235 252 254 272 221 203 224 200 188 192 202 206 207 208 212 212 208 204 201 201 206 210 213 216 219 220
181 151 214 207 179 147 117 115 135 146 183 265 257 280 151 245 326 304 257 208 212 209 209 210 207 208 210 211 209 207 205 205 207 210 212 214 214 216
202 190 223 176 158 212 159 155 188 187 173 234 280 285 248 220 215 235 251 209 224 227 215 206 209 212 213 216 213 212 212 211 209 209 211 214 216 215
201 199 208 165 187 216 187 196 214 199 171 184 246 261 274 257 118 280 285 275 239 234 218 215 217 219 224 225 219 217 214 213 211 210 211 213 214 214
210 200 194 186 193 199 189 206 191 160 179 192 231 263 272 283 144 216 287 286 261 247 240 228 226 231 235 233 227 221 214 212 211 210 211 212 210 210
216 206 199 190 190 198 200 197 173 170 183 204 247 278 274 244 232 224 233 275 281 239 261 255 239 244 243 238 230 222 219 216 213 212 211 209 207 207
213 234 222 215 230 233 228 206 186 192 205 203 223 234 242 233 223 216 207 214 275 247 182 256 235 247 252 238 232 221 216 213 214 216 215 213 213 211
206 214 232 247 252 253 264 268 256 235 207 192 209 232 231 225 207 220 217 214 232 230 165 254 247 252 255 250 230 218 211 210 211 214 217 217 216 213
208 202 205 232 243 203 200 278 274 262 234 206 211 231 232 228 210 209 213 230 276 265 164 221 252 250 257 255 228 209 206 212 216 218 219 219 218 216
214 201 194 211 229 198 174 243 297 297 282 251 241 249 248 236 200 151 158 162 272 273 211 191 239 262 278 268 252 214 205 209 214 218 220 218 214 206
230 227 215 216 226 197 182 195 246 272 298 330 327 316 296 271 217 186 185 191 217 255 233 191 215 182 294 290 270 232 212 218 217 218 216 217 205 186
218 232 240 229 227 222 207 206 227 238 254 277 308 316 317 307 272 228 200 190 197 230 225 176 190 184 189 273 307 290 220 207 193 217 224 216 201 187
216 225 225 218 214 222 219 232 220 197 183 286 295 287 289 284 273 252 228 216 208 217 216 178 180 188 176 197 266 294 298 247 200 207 213 208 205 205
218 217 219 208 202 224 264 223 148 137 158 217 251 259 256 259 268 282 314 293 293 278 224 196 177 185 178 185 198 210 240 265 217 204 207 197 193 184
215 207 199 191 181 240 268 233 195 189 189 211 238 261 288 307 295 258 268 311 339 322 318 274 193 167 185 200 178 204 208 210 218 226 211 219 218 205
153 117 98 111 258 284 275 254 231 211 215 235 241 270 284 286 282 278 211 140 158 280 316 329 327 158 181 170 173 203 205 220 212 193 175 225 251 226
139 158 203 216 222 229 237 251 241 230 229 227 228 233 238 246 260 268 196 173 219 243 252 262 37 36 19 337 205 192 214 225 218 193 178 196 253 256
159 204 218 222 226 227 228 229 239 238 225 217 221 231 235 237 232 238 226 212 239 247 244 221 185 165 188 270 283 219 193 206 198 205 209 208 230 245
200 211 220 219 218 219 222 231 236 233 226 230 230 230 227 221 228 231 224 222 241 261 279 251 211 199 201 212 225 263 222 186 190 207 221 247 269 268
212 212 213 213 218 221 225 224 215 210 212 217 222 225 224 214 229 234 234 243 234 232 248 257 252 239 174 111 97 295 279 243 202 195 187 180 252 285
215 212 212 210 213 217 221 215 213 214 209 210 220 220 215 203 208 217 213 219 232 234 248 264 266 132 127 170 209 232 256 297 308 285 203 187 184 199
218 212 212 214 217 216 211 205 204 210 204 202 209 215 209 211 214 208 212 219 230 234 235 262 288 251 196 187 195 211 217 236 264 316 308 304 262 244